Time,TemperatureF,DewpointF,PressureIn,WindDirection,WindDirectionDegrees,WindSpeedMPH,WindSpeedGustMPH,Humidity,HourlyPrecipIn,Conditions,Clouds,dailyrainin,SoftwareType,DateUTC
2013-01-07 00:11:00,10.0,4.0,-100.00,SSW,202,1.0,3.0,76,-99.99,,,-99.99,,2013-01-07 07:11:00,
2013-01-07 00:22:00,8.0,2.0,-100.00,SE,131,2.0,3.0,77,-99.99,,,-99.99,,2013-01-07 07:22:00,
2013-01-07 00:32:00,7.0,2.0,-100.00,ESE,122,3.0,5.0,79,-99.99,,,-99.99,,2013-01-07 07:32:00,
2013-01-07 00:42:00,9.0,4.0,-100.00,South,188,0.0,3.0,78,-99.99,,,-99.99,,2013-01-07 07:42:00,
2013-01-07 00:52:00,9.0,4.0,-100.00,South,188,0.0,3.0,78,-99.99,,,-99.99,,2013-01-07 07:52:00,
2013-01-07 01:02:00,6.0,1.0,-100.00,ESE,103,3.0,5.0,77,-99.99,,,-99.99,,2013-01-07 08:02:00,
2013-01-07 01:11:00,6.0,1.0,-100.00,ESE,103,1.0,2.0,79,-99.99,,,-99.99,,2013-01-07 08:11:00,
2013-01-07 01:32:00,5.0,-1.0,-100.00,ESE,103,3.0,4.0,78,-99.99,,,-99.99,,2013-01-07 08:32:00,
2013-01-07 01:42:00,5.0,-1.0,-100.00,North,0,0.0,2.0,78,-99.99,,,-99.99,,2013-01-07 08:42:00,
2013-01-07 01:52:00,5.0,-1.0,-100.00,North,0,0.0,2.0,78,-99.99,,,-99.99,,2013-01-07 08:52:00,
2013-01-07 02:02:00,5.0,0.0,-100.00,ESE,104,3.0,5.0,80,-99.99,,,-99.99,,2013-01-07 09:02:00,
2013-01-07 02:12:00,6.0,1.0,-100.00,North,0,0.0,4.0,79,-99.99,,,-99.99,,2013-01-07 09:12:00,
2013-01-07 02:22:00,6.0,1.0,-100.00,North,0,0.0,4.0,79,-99.99,,,-99.99,,2013-01-07 09:22:00,
2013-01-07 02:32:00,4.0,-1.0,-100.00,East,100,3.0,5.0,79,-99.99,,,-99.99,,2013-01-07 09:32:00,
2013-01-07 02:42:00,2.0,-3.0,-100.00,East,100,2.0,4.0,78,-99.99,,,-99.99,,2013-01-07 09:42:00,
2013-01-07 02:52:00,2.0,-3.0,-100.00,East,100,2.0,4.0,78,-99.99,,,-99.99,,2013-01-07 09:52:00,
2013-01-07 03:02:00,3.0,-2.0,-100.00,ESE,113,5.0,6.0,79,-99.99,,,-99.99,,2013-01-07 10:02:00,
2013-01-07 03:11:00,2.0,-4.0,-100.00,East,98,1.0,6.0,78,-99.99,,,-99.99,,2013-01-07 10:11:00,
2013-01-07 03:22:00,2.0,-4.0,-100.00,East,98,1.0,6.0,78,-99.99,,,-99.99,,2013-01-07 10:22:00,
2013-01-07 03:32:00,2.0,-3.0,-100.00,ENE,60,4.0,4.0,80,-99.99,,,-99.99,,2013-01-07 10:32:00,
2013-01-07 03:42:00,0.0,-4.0,-100.00,NE,52,4.0,4.0,79,-99.99,,,-99.99,,2013-01-07 10:42:00,
2013-01-07 03:52:00,0.0,-4.0,-100.00,NE,52,4.0,4.0,79,-99.99,,,-99.99,,2013-01-07 10:52:00,
2013-01-07 04:02:00,1.0,-3.0,-100.00,ESE,114,5.0,5.0,81,-99.99,,,-99.99,,2013-01-07 11:02:00,
2013-01-07 04:12:00,2.0,-2.0,-100.00,ESE,120,4.0,5.0,81,-99.99,,,-99.99,,2013-01-07 11:12:00,
2013-01-07 04:32:00,1.0,-4.0,-100.00,ENE,77,0.0,3.0,80,-99.99,,,-99.99,,2013-01-07 11:32:00,
2013-01-07 04:42:00,1.0,-3.0,-100.00,ENE,73,2.0,3.0,80,-99.99,,,-99.99,,2013-01-07 11:42:00,
2013-01-07 04:52:00,1.0,-3.0,-100.00,ENE,73,2.0,3.0,80,-99.99,,,-99.99,,2013-01-07 11:52:00,
2013-01-07 05:02:00,1.0,-3.0,-100.00,SE,136,3.0,4.0,82,-99.99,,,-99.99,,2013-01-07 12:02:00,
2013-01-07 05:12:00,1.0,-3.0,-100.00,SE,133,4.0,4.0,81,-99.99,,,-99.99,,2013-01-07 12:12:00,
2013-01-07 05:32:00,-1.0,-5.0,-100.00,East,92,5.0,6.0,80,-99.99,,,-99.99,,2013-01-07 12:32:00,
2013-01-07 05:42:00,0.0,-5.0,-100.00,East,92,4.0,6.0,79,-99.99,,,-99.99,,2013-01-07 12:42:00,
2013-01-07 05:52:00,0.0,-5.0,-100.00,East,92,4.0,6.0,79,-99.99,,,-99.99,,2013-01-07 12:52:00,
2013-01-07 06:02:00,0.0,-4.0,-100.00,ESE,107,4.0,5.0,82,-99.99,,,-99.99,,2013-01-07 13:02:00,
2013-01-07 06:12:00,0.0,-4.0,-100.00,East,98,2.0,5.0,81,-99.99,,,-99.99,,2013-01-07 13:12:00,
2013-01-07 06:22:00,0.0,-4.0,-100.00,East,98,2.0,5.0,81,-99.99,,,-99.99,,2013-01-07 13:22:00,
2013-01-07 06:32:00,-1.0,-5.0,-100.00,ENE,68,3.0,3.0,81,-99.99,,,-99.99,,2013-01-07 13:32:00,
2013-01-07 06:52:00,-1.0,-6.0,-100.00,East,80,3.0,5.0,80,-99.99,,,-99.99,,2013-01-07 13:52:00,
2013-01-07 07:12:00,0.0,-4.0,-100.00,West,272,6.0,7.0,81,-99.99,,,-99.99,,2013-01-07 14:12:00,
2013-01-07 07:22:00,1.0,-3.0,-100.00,West,271,8.0,8.0,81,-99.99,,,-99.99,,2013-01-07 14:22:00,
2013-01-07 07:33:00,1.0,-3.0,-100.00,West,271,8.0,8.0,81,-99.99,,,-99.99,,2013-01-07 14:33:00,
2013-01-07 07:42:00,-1.0,-6.0,-100.00,WNW,282,4.0,4.0,81,-99.99,,,-99.99,,2013-01-07 14:42:00,
2013-01-07 07:53:00,-1.0,-6.0,-100.00,WNW,282,4.0,4.0,81,-99.99,,,-99.99,,2013-01-07 14:53:00,
2013-01-07 08:03:00,-1.0,-6.0,-100.00,ESE,106,4.0,5.0,79,-99.99,,,-99.99,,2013-01-07 15:03:00,
2013-01-07 08:12:00,-2.0,-6.0,-100.00,East,83,3.0,5.0,80,-99.99,,,-99.99,,2013-01-07 15:12:00,
2013-01-07 08:22:00,-2.0,-6.0,-100.00,East,83,3.0,5.0,80,-99.99,,,-99.99,,2013-01-07 15:22:00,
2013-01-07 08:33:00,-1.0,-6.0,-100.00,SE,126,1.0,2.0,78,-99.99,,,-99.99,,2013-01-07 15:33:00,
2013-01-07 08:42:00,0.0,-5.0,-100.00,SE,126,2.0,3.0,79,-99.99,,,-99.99,,2013-01-07 15:42:00,
2013-01-07 08:52:00,0.0,-5.0,-100.00,SE,126,2.0,3.0,79,-99.99,,,-99.99,,2013-01-07 15:52:00,
2013-01-07 09:02:00,3.0,-3.0,-100.00,North,0,0.0,2.0,76,-99.99,,,-99.99,,2013-01-07 16:02:00,
2013-01-07 09:12:00,4.0,-1.0,-100.00,ESE,107,0.0,1.0,78,-99.99,,,-99.99,,2013-01-07 16:12:00,
2013-01-07 09:22:00,4.0,-1.0,-100.00,ESE,107,0.0,1.0,78,-99.99,,,-99.99,,2013-01-07 16:22:00,
2013-01-07 09:33:00,5.0,-2.0,-100.00,East,83,5.0,5.0,74,-99.99,,,-99.99,,2013-01-07 16:33:00,
2013-01-07 09:42:00,4.0,-2.0,-100.00,East,100,5.0,6.0,75,-99.99,,,-99.99,,2013-01-07 16:42:00,
2013-01-07 09:52:00,4.0,-2.0,-100.00,East,100,5.0,6.0,75,-99.99,,,-99.99,,2013-01-07 16:52:00,
2013-01-07 10:12:00,9.0,1.0,-100.00,ENE,74,2.0,4.0,69,-99.99,,,-99.99,,2013-01-07 17:12:00,
2013-01-07 10:22:00,8.0,1.0,-100.00,ESE,107,4.0,4.0,71,-99.99,,,-99.99,,2013-01-07 17:22:00,
2013-01-07 10:32:00,15.0,3.0,-100.00,East,91,1.0,1.0,57,-99.99,,,-99.99,,2013-01-07 17:32:00,
2013-01-07 10:42:00,12.0,2.0,-100.00,East,83,3.0,5.0,63,-99.99,,,-99.99,,2013-01-07 17:42:00,
2013-01-07 10:52:00,12.0,2.0,-100.00,East,83,3.0,5.0,63,-99.99,,,-99.99,,2013-01-07 17:52:00,
2013-01-07 11:02:00,16.0,4.0,-100.00,East,99,2.0,3.0,57,-99.99,,,-99.99,,2013-01-07 18:02:00,
2013-01-07 11:12:00,18.0,5.0,-100.00,ESE,104,4.0,4.0,56,-99.99,,,-99.99,,2013-01-07 18:12:00,
2013-01-07 11:22:00,18.0,5.0,-100.00,ESE,104,4.0,4.0,56,-99.99,,,-99.99,,2013-01-07 18:22:00,
2013-01-07 11:32:00,18.0,5.0,-100.00,ESE,104,4.0,4.0,56,-99.99,,,-99.99,,2013-01-07 18:32:00,
2013-01-07 11:42:00,21.0,7.0,-100.00,ESE,121,3.0,5.0,53,-99.99,,,-99.99,,2013-01-07 18:42:00,
2013-01-07 11:52:00,21.0,7.0,-100.00,ESE,121,3.0,5.0,53,-99.99,,,-99.99,,2013-01-07 18:52:00,
2013-01-07 12:03:00,21.0,5.0,-100.00,ESE,111,6.0,7.0,49,-99.99,,,-99.99,,2013-01-07 19:03:00,
2013-01-07 12:12:00,23.0,5.0,-100.00,East,93,3.0,6.0,47,-99.99,,,-99.99,,2013-01-07 19:12:00,
2013-01-07 12:22:00,23.0,5.0,-100.00,East,93,3.0,6.0,47,-99.99,,,-99.99,,2013-01-07 19:22:00,
2013-01-07 12:33:00,23.0,5.0,-100.00,East,93,3.0,6.0,47,-99.99,,,-99.99,,2013-01-07 19:33:00,
2013-01-07 12:42:00,28.0,7.0,-100.00,East,94,3.0,5.0,41,-99.99,,,-99.99,,2013-01-07 19:42:00,
2013-01-07 12:52:00,28.0,7.0,-100.00,East,94,3.0,5.0,41,-99.99,,,-99.99,,2013-01-07 19:52:00,
2013-01-07 13:02:00,28.0,7.0,-100.00,East,94,3.0,5.0,41,-99.99,,,-99.99,,2013-01-07 20:02:00,
2013-01-07 13:12:00,30.0,7.0,-100.00,East,88,1.0,4.0,37,-99.99,,,-99.99,,2013-01-07 20:12:00,
2013-01-07 13:22:00,30.0,7.0,-100.00,East,88,1.0,4.0,37,-99.99,,,-99.99,,2013-01-07 20:22:00,
2013-01-07 13:33:00,29.0,6.0,-100.00,East,100,6.0,7.0,37,-99.99,,,-99.99,,2013-01-07 20:33:00,
2013-01-07 13:42:00,30.0,7.0,-100.00,East,98,5.0,6.0,37,-99.99,,,-99.99,,2013-01-07 20:42:00,
2013-01-07 13:52:00,30.0,7.0,-100.00,East,98,5.0,6.0,37,-99.99,,,-99.99,,2013-01-07 20:52:00,
2013-01-07 14:02:00,31.0,4.0,-100.00,East,84,3.0,5.0,30,-99.99,,,-99.99,,2013-01-07 21:02:00,
2013-01-07 14:12:00,32.0,6.0,-100.00,West,279,13.0,19.0,33,-99.99,,,-99.99,,2013-01-07 21:12:00,
2013-01-07 14:22:00,32.0,6.0,-100.00,West,279,13.0,19.0,33,-99.99,,,-99.99,,2013-01-07 21:22:00,
2013-01-07 14:32:00,31.0,6.0,-100.00,West,277,12.0,18.0,34,-99.99,,,-99.99,,2013-01-07 21:32:00,
2013-01-07 14:42:00,31.0,7.0,-100.00,West,279,11.0,16.0,34,-99.99,,,-99.99,,2013-01-07 21:42:00,
2013-01-07 14:52:00,31.0,7.0,-100.00,WNW,287,11.0,16.0,35,-99.99,,,-99.99,,2013-01-07 21:52:00,
2013-01-07 15:02:00,31.0,7.0,-100.00,WNW,287,11.0,16.0,35,-99.99,,,-99.99,,2013-01-07 22:02:00,
2013-01-07 15:12:00,32.0,6.0,-100.00,West,279,10.0,13.0,32,-99.99,,,-99.99,,2013-01-07 22:12:00,
2013-01-07 15:22:00,32.0,6.0,-100.00,West,279,10.0,13.0,32,-99.99,,,-99.99,,2013-01-07 22:22:00,
2013-01-07 15:33:00,33.0,5.0,-100.00,WNW,285,9.0,11.0,30,-99.99,,,-99.99,,2013-01-07 22:33:00,
2013-01-07 15:42:00,33.0,5.0,-100.00,WNW,285,9.0,11.0,30,-99.99,,,-99.99,,2013-01-07 22:42:00,
2013-01-07 15:52:00,32.0,4.0,-100.00,WNW,300,11.0,15.0,29,-99.99,,,-99.99,,2013-01-07 22:52:00,
2013-01-07 16:02:00,32.0,5.0,-100.00,WNW,290,12.0,15.0,30,-99.99,,,-99.99,,2013-01-07 23:02:00,
2013-01-07 16:12:00,31.0,5.0,-100.00,WNW,294,14.0,17.0,33,-99.99,,,-99.99,,2013-01-07 23:12:00,
2013-01-07 16:22:00,31.0,6.0,-100.00,WNW,286,12.0,19.0,33,-99.99,,,-99.99,,2013-01-07 23:22:00,
2013-01-07 16:32:00,31.0,6.0,-100.00,WNW,286,12.0,19.0,33,-99.99,,,-99.99,,2013-01-07 23:32:00,
2013-01-07 16:42:00,31.0,6.0,-100.00,WNW,288,10.0,16.0,34,-99.99,,,-99.99,,2013-01-07 23:42:00,
2013-01-07 16:52:00,31.0,8.0,-100.00,WNW,289,9.0,10.0,36,-99.99,,,-99.99,,2013-01-07 23:52:00,
2013-01-07 17:02:00,31.0,8.0,-100.00,WNW,289,9.0,10.0,36,-99.99,,,-99.99,,2013-01-08 00:02:00,
2013-01-07 17:12:00,31.0,7.0,-100.00,WNW,289,13.0,16.0,35,-99.99,,,-99.99,,2013-01-08 00:12:00,
2013-01-07 17:22:00,31.0,7.0,-100.00,WNW,289,13.0,16.0,35,-99.99,,,-99.99,,2013-01-08 00:22:00,
2013-01-07 17:32:00,29.0,8.0,-100.00,WNW,290,13.0,15.0,41,-99.99,,,-99.99,,2013-01-08 00:32:00,
2013-01-07 17:42:00,29.0,8.0,-100.00,WNW,290,12.0,16.0,41,-99.99,,,-99.99,,2013-01-08 00:42:00,
2013-01-07 17:52:00,29.0,8.0,-100.00,WNW,290,12.0,16.0,41,-99.99,,,-99.99,,2013-01-08 00:52:00,
2013-01-07 18:02:00,28.0,9.0,-100.00,WNW,289,12.0,16.0,43,-99.99,,,-99.99,,2013-01-08 01:02:00,
2013-01-07 18:11:00,29.0,8.0,-100.00,WNW,296,14.0,17.0,41,-99.99,,,-99.99,,2013-01-08 01:11:00,
2013-01-07 18:22:00,29.0,8.0,-100.00,WNW,296,14.0,17.0,41,-99.99,,,-99.99,,2013-01-08 01:22:00,
2013-01-07 18:32:00,28.0,11.0,-100.00,West,276,8.0,12.0,47,-99.99,,,-99.99,,2013-01-08 01:32:00,
2013-01-07 18:42:00,29.0,11.0,-100.00,West,272,8.0,10.0,46,-99.99,,,-99.99,,2013-01-08 01:42:00,
2013-01-07 18:52:00,29.0,11.0,-100.00,West,272,8.0,10.0,46,-99.99,,,-99.99,,2013-01-08 01:52:00,
2013-01-07 19:02:00,28.0,12.0,-100.00,West,272,7.0,12.0,51,-99.99,,,-99.99,,2013-01-08 02:02:00,
2013-01-07 19:12:00,28.0,12.0,-100.00,WSW,242,5.0,8.0,48,-99.99,,,-99.99,,2013-01-08 02:12:00,
2013-01-07 19:22:00,28.0,12.0,-100.00,WSW,242,5.0,8.0,48,-99.99,,,-99.99,,2013-01-08 02:22:00,
2013-01-07 19:32:00,28.0,13.0,-100.00,WNW,282,9.0,13.0,51,-99.99,,,-99.99,,2013-01-08 02:32:00,
2013-01-07 19:42:00,30.0,12.0,-100.00,WNW,282,17.0,19.0,46,-99.99,,,-99.99,,2013-01-08 02:42:00,
2013-01-07 19:52:00,30.0,12.0,-100.00,WNW,282,17.0,19.0,46,-99.99,,,-99.99,,2013-01-08 02:52:00,
2013-01-07 20:02:00,30.0,12.0,-100.00,WNW,282,17.0,19.0,46,-99.99,,,-99.99,,2013-01-08 03:02:00,
2013-01-07 20:12:00,30.0,12.0,-100.00,WNW,282,17.0,19.0,46,-99.99,,,-99.99,,2013-01-08 03:12:00,
2013-01-07 20:22:00,29.0,13.0,-100.00,WNW,289,12.0,17.0,49,-99.99,,,-99.99,,2013-01-08 03:22:00,
2013-01-07 20:32:00,29.0,13.0,-100.00,WNW,289,12.0,17.0,49,-99.99,,,-99.99,,2013-01-08 03:32:00,
2013-01-07 20:42:00,28.0,12.0,-100.00,SW,220,8.0,15.0,49,-99.99,,,-99.99,,2013-01-08 03:42:00,
2013-01-07 20:52:00,28.0,12.0,-100.00,SW,220,8.0,15.0,49,-99.99,,,-99.99,,2013-01-08 03:52:00,
2013-01-07 21:02:00,28.0,12.0,-100.00,SW,220,8.0,15.0,49,-99.99,,,-99.99,,2013-01-08 04:02:00,
2013-01-07 21:12:00,28.0,15.0,-100.00,West,272,9.0,13.0,57,-99.99,,,-99.99,,2013-01-08 04:12:00,
2013-01-07 21:22:00,28.0,15.0,-100.00,West,272,9.0,13.0,57,-99.99,,,-99.99,,2013-01-08 04:22:00,
2013-01-07 21:32:00,28.0,15.0,-100.00,West,272,9.0,13.0,57,-99.99,,,-99.99,,2013-01-08 04:32:00,
2013-01-07 21:42:00,29.0,16.0,-100.00,WSW,237,7.0,11.0,59,-99.99,,,-99.99,,2013-01-08 04:42:00,
2013-01-07 21:52:00,28.0,17.0,-100.00,West,275,9.0,11.0,61,-99.99,,,-99.99,,2013-01-08 04:52:00,
2013-01-07 22:03:00,28.0,19.0,-100.00,WNW,297,13.0,18.0,67,-99.99,,,-99.99,,2013-01-08 05:03:00,
2013-01-07 22:12:00,28.0,18.0,-100.00,West,267,12.0,17.0,66,-99.99,,,-99.99,,2013-01-08 05:12:00,
2013-01-07 22:22:00,28.0,18.0,-100.00,West,267,12.0,17.0,66,-99.99,,,-99.99,,2013-01-08 05:22:00,
2013-01-07 22:33:00,27.0,18.0,-100.00,WSW,253,7.0,16.0,68,-99.99,,,-99.99,,2013-01-08 05:33:00,
2013-01-07 22:42:00,27.0,18.0,-100.00,WSW,253,7.0,16.0,68,-99.99,,,-99.99,,2013-01-08 05:42:00,
2013-01-07 22:52:00,27.0,19.0,-100.00,WNW,291,11.0,18.0,72,-99.99,,,-99.99,,2013-01-08 05:52:00,
2013-01-07 23:02:00,27.0,19.0,-100.00,WNW,291,11.0,18.0,72,-99.99,,,-99.99,,2013-01-08 06:02:00,
2013-01-07 23:12:00,27.0,21.0,-100.00,NW,311,7.0,11.0,77,-99.99,,,-99.99,,2013-01-08 06:12:00,
2013-01-07 23:22:00,27.0,21.0,-100.00,NW,311,7.0,11.0,77,-99.99,,,-99.99,,2013-01-08 06:22:00,
2013-01-07 23:32:00,26.0,22.0,-100.00,WNW,294,12.0,15.0,81,-99.99,,,-99.99,,2013-01-08 06:32:00,
2013-01-07 23:42:00,27.0,23.0,-100.00,West,279,13.0,18.0,85,-99.99,,,-99.99,,2013-01-08 06:42:00,
2013-01-07 23:52:00,27.0,23.0,-100.00,West,279,13.0,18.0,85,-99.99,,,-99.99,,2013-01-08 06:52:00,